Regional Weather Roundup
Issued by NWS

Home | Current Version | Previous Version | Graphics & Text | Print | Product List | Glossary On
Versions: 1 2 3 4 5 6 7 8 9 10 11 12 13 14 15 16 17 18 19 20 21 22 23 24 25 26 27 28 29 30 31 32 33 34 35 36 37 38 39 40 41 42 43 44 45 46 47 48 49 50
000
ASUS43 KFSD 011910
RWRSD

WEATHER ROUNDUP FOR SOUTH DAKOTA
NATIONAL WEATHER SERVICE SIOUX FALLS SD
200 PM CDT WED OCT 01 2014

NOTE: "FAIR" INDICATES FEW OR NO CLOUDS BELOW 12,000 FEET WITH NO
SIGNIFICANT WEATHER AND/OR OBSTRUCTIONS TO VISIBILITY.


SDZ001>005-009-010-012>017-012000-
NORTHWEST AND NORTH CENTRAL SOUTH DAKOTA

CITY           SKY/WX    TMP DP  RH WIND       PRES   REMARKS
BUFFALO          N/A     52  44  74 NW23      29.81R
FAITH            N/A     57  47  69 NW23G31   29.83S
MOBRIDGE       CLOUDY    65  49  56 NW17G25   29.74S
$$

SDZ012>016-024>037-041>051-057-063-072>074-012000-
SOUTHWEST AND SOUTH CENTRAL SOUTH DAKOTA

CITY           SKY/WX    TMP DP  RH WIND       PRES   REMARKS
RAPID CTY ARPT CLOUDY    56  43  61 N18       29.87S
PIERRE         MOSUNNY   69  49  48 NW17G23   29.78S
CUSTER         CLOUDY    48  44  86 SW3       29.90F
ELLSWORTH AFB  LGT RAIN  53  46  75 N21       29.86S
PHILIP         PTSUNNY   64  47  53 NW12G24   29.83S
PINE RIDGE     CLOUDY    62  48  60 CALM      29.85F
WINNER         FAIR      71  49  45 N14       29.80S
$$

SDZ004>011-016>023-039-040-012000-
NORTHEAST SOUTH DAKOTA

CITY           SKY/WX    TMP DP  RH WIND       PRES   REMARKS
ABERDEEN       MOSUNNY   70  52  52 NW20G25   29.71F
WATERTOWN      SUNNY     69  52  54 W16       29.71S
SISSETON         N/A     71  53  52 W9        29.67F
$$

SDZ017-020-022-023-036>040-048>070-012000-
SOUTHEAST SOUTH DAKOTA

CITY           SKY/WX    TMP DP  RH WIND       PRES   REMARKS
SIOUX FALLS    PTSUNNY   72  59  63 VRB5      29.73S
HURON          SUNNY     72  50  45 NW13      29.72F
CHAMBERLAIN    MOSUNNY   71  49  46 NW12G18   29.77S
MITCHELL       SUNNY     74  52  46 NW14      29.73F
YANKTON        PTSUNNY   73  57  56 W8        29.73F
$$

ABBREVIATIONS USED IN REMARKS
   TC - TEMPERATURE IN CELSIUS
  WCI - WIND CHILL INDEX
   HX - HEAT INDEX
  VSB - VISIBILITY




USA.gov is the U.S. government's official web portal to all federal, state and local government web resources and services.